This demonstration page uses our WeatherBlox Daily Observations layout. Learn more.

Left ArrowRight Arrow

Hourly Observations for November 10, 2019

Temp ( °F °C ) Dew Point ( °F °C ) Humidity (%) Winds ( mph kmh ) Pressure ( in mb ) Visibility ( mi km ) Precip ( " mm )
12:56 am 00:56 Clear 44 6.7 26 -3.3 49 49 NW 9 15 29.95 1014 10 16 0.00 0.00
1:56 am 01:56 Clear 42 5.6 26 -3.3 53 53 NW 9 15 29.94 1014 10 16 0.00 0.00
2:56 am 02:56 Clear 37 2.8 26 -3.3 65 65 NW 8 13 29.97 1015 10 16 0.00 0.00
3:56 am 03:56 Clear 39 3.9 27 -2.8 62 62 NNW 10 17 29.98 1015 10 16 0.00 0.00
4:56 am 04:56 Clear 37 2.8 27 -2.8 67 67 NNW 8 13 30.00 1016 10 16 0.00 0.00
5:56 am 05:56 Clear 36 2.2 28 -2.2 73 73 N 10 17 30.04 1017 10 16 0.00 0.00
6:56 am 06:56 Clear 35 1.7 30 -1.1 82 82 NNE 13 20 30.06 1018 10 16 0.00 0.00
7:56 am 07:56 Sunny 34 1.1 31 -0.6 89 89 NNE 9 15 30.09 1019 10 16 0.00 0.00
8:56 am 08:56 Sunny 37 2.8 32 0 82 82 NE 15 24 30.10 1019 10 16 0.00 0.00
9:56 am 09:56 Sunny 40 4.4 32 0 73 73 ENE 17 28 30.11 1020 10 16 0.00 0.00
10:56 am 10:56 Sunny 42 5.6 33 0.6 71 71 ENE 14 22 30.10 1019 10 16 0.00 0.00
11:56 am 11:56 Sunny 44 6.7 33 0.6 65 65 ENE 13 20 30.09 1019 10 16 0.00 0.00
12:56 pm 12:56 Sunny 46 7.8 33 0.6 61 61 NE 15 24 30.07 1018 10 16 0.00 0.00
1:56 pm 13:56 Sunny 46 7.8 32 0 58 58 NE 15 24 30.07 1018 10 16 0.00 0.00
2:56 pm 14:56 Sunny 45 7.2 32 0 61 61 NE 15 24 30.06 1018 10 16 0.00 0.00
3:56 pm 15:56 Sunny 43 6.1 31 -0.6 63 63 NE 20 31 30.06 1018 10 16 0.00 0.00
4:56 pm 16:56 Sunny 39 3.9 31 -0.6 73 73 NE 17 28 30.10 1019 10 16 0.00 0.00
5:20 pm 17:20 Mostly Cloudy 39 4 30 -1 70 70 NE 22 35 30.13 1020 10 16 0.00 0.00
5:56 pm 17:56 Cloudy 35 1.7 28 -2.2 76 76 NE 24 39 30.15 1021 10 16 0.00 0.00
6:56 pm 18:56 Cloudy 30 -1.1 26 -3.3 85 85 NNE 26 43 30.20 1023 10 16 0.00 0.00
7:07 pm 19:07 Cloudy 28 -2 27 -3 93 93 NNE 30 48 30.27 1025 10 16 0.00 0.00
7:36 pm 19:36 Cloudy 28 -2 25 -4 86 86 NNE 28 44 30.29 1026 10 16 0.00 0.00
7:56 pm 19:56 Cloudy 27 -2.8 24 -4.4 89 89 NNE 28 44 30.25 1024 10 16 0.00 0.00
8:22 pm 20:22 Cloudy 27 -3 21 -6 80 80 NNE 25 41 30.33 1027 10 16 0.00 0.00
8:56 pm 20:56 Cloudy 26 -3.3 21 -6.1 81 81 NNE 25 41 30.29 1026 10 16 0.00 0.00
9:25 pm 21:25 Cloudy 25 -4 19 -7 80 80 NNE 25 41 30.39 1029 10 16 0.00 0.00
9:45 pm 21:45 Cloudy 25 -4 19 -7 80 80 N 24 39 30.41 1030 10 16 0.00 0.00
9:56 pm 21:56 Cloudy 25 -3.9 19 -7.2 78 78 NNE 24 39 30.34 1027 10 16 0.00 0.00
10:46 pm 22:46 Cloudy 25 -4 19 -7 80 80 NNE 24 39 30.44 1031 10 16 0.00 0.00
10:56 pm 22:56 Windy with Snow Likely 23 -5 17 -8.3 78 78 N 26 43 30.38 1029 10 16 0.00 0.00
11:56 pm 23:56 Cloudy 21 -6.1 16 -8.9 81 81 N 25 41 30.42 1030 10 16 0.00 0.00

Powered by AerisWeather